Regional Weather Roundup
Issued by NWS

Home | Current Version | Previous Version | Graphics & Text | Print | Product List | Glossary On
Versions: 1 2 3 4 5 6 7 8 9 10 11 12 13 14 15 16 17 18 19 20 21 22 23 24 25 26 27 28 29 30 31 32 33 34 35 36 37 38 39 40 41 42 43 44 45 46 47 48 49 50
752
ASUS45 KPSR 100110
RWRAZ

ARIZONA HOURLY REGIONAL WEATHER ROUNDUP
NATIONAL WEATHER SERVICE PHOENIX AZ
600 PM MST TUE FEB 09 2016

NOTE: FAIR INDICATES FEW OR NO CLOUDS BELOW 12,000 FEET WITH NO
SIGNIFICANT WEATHER AND/OR OBSTRUCTIONS TO VISIBILITY.

AZZ001>003-036-100200-
NORTHWEST ARIZONA

CITY           SKY/WX    TMP DP  RH WIND       PRES   REMARKS
BULLHEAD CITY  CLEAR     75  25  15 N21G26    30.15S
KINGMAN        CLEAR     63  24  22 NE6       30.27R
$$

AZZ004>008-015-016-018-100200-
NORTH CENTRAL ARIZONA

CITY           SKY/WX    TMP DP  RH WIND       PRES   REMARKS
GRAND CANYON   CLEAR     49  10  20 NE7       30.41F
WILLIAMS       PTCLDY    54  18  24 NE5       30.43S
PRESCOTT       CLEAR     64  16  15 NW6       30.30S
FLAGSTAFF      PTCLDY    48  16  27 E8        30.41R
PAYSON         CLEAR     61  16  17 NE8       30.31S
PAGE           CLEAR     50  26  39 N5        30.39R
$$

AZZ009>014-017-100200-
NORTHEAST ARIZONA

CITY           SKY/WX    TMP DP  RH WIND       PRES   REMARKS
WINSLOW        CLEAR     53  20  27 W6        30.36S
SAINT JOHNS    CLEAR     49  21  33 W5        30.36R
WINDOW ROCK    CLEAR     51   0  12 N5        30.39R
SHOW LOW       CLEAR     45  18  33 NE6       30.41R
$$

AZZ023-100200-
GREATER PHOENIX AREA

CITY           SKY/WX    TMP DP  RH WIND       PRES   REMARKS
PHOENIX        CLEAR     83  18   9 NE8       30.07S
BUCKEYE        CLEAR     77  27  15 SE3       30.11S
GLENDALE       CLEAR     84  19   9 CALM      30.10R
LUKE AFB       CLEAR     82  18   9 CALM      30.08R
DEER VALLEY    CLEAR     79  21  11 SE6       30.09S
SCOTTSDALE     CLEAR     80  19  10 CALM      30.11S
MESA-GATEWAY   CLEAR     79  28  15 CALM      30.10S
CHANDLER       CLEAR     81  25  12 VRB5      30.09S
$$

AZZ027-028-100200-
SOUTHWEST MARICOPA COUNTY AND PINAL COUNTY

CITY           SKY/WX    TMP DP  RH WIND       PRES   REMARKS
CASA GRANDE    CLEAR     79  28  15 N5        30.11R
$$

AZZ503-504-507>509-100200-
SOUTHEAST ARIZONA

CITY           SKY/WX    TMP DP  RH WIND       PRES   REMARKS
TUCSON         FAIR      78  19  11 NE5       30.15R
DAVIS-MONTHAN  CLEAR     74  17  11 NE8       30.13S
RYAN FIELD     CLEAR     77  27  15 NW8       30.13S
NOGALES        PTCLDY    70  12  10 NE9       30.18R
SIERRA VISTA   PTCLDY    65  12  12 E5        30.25S
DOUGLAS        PTCLDY    65  14  14 E10       30.23R
SAFFORD        PTCLDY    67  20  16 SW5       30.20S
$$

AZZ020-021-025-026-031-100200-
SOUTHWEST ARIZONA

CITY           SKY/WX    TMP DP  RH WIND       PRES   REMARKS
YUMA           CLEAR     81  24  12 N9        30.08S
$$

CAZ031-033-041-043-047-048-061-100200-
SOUTHERN CALIFORNIA

CITY           SKY/WX    TMP DP  RH WIND       PRES   REMARKS
DOWNTOWN L.A.  CLEAR     83  30  14 CALM      30.06R
L.A. AIRPORT   PTCLDY    73  40  30 W9        30.07S
SAN DIEGO      PTCLDY    81  31  16 NW7       30.06R
BURBANK        CLEAR     86  28  12 SE7       30.08S
ONTARIO        PTCLDY    82  23  11 NW7       30.10R
RIVERSIDE      CLEAR     84  22  10 N8        30.10R
PALM SPRINGS   CLEAR     84  25  11 SW5       30.12S
EL CENTRO NAS  CLEAR     83  20   9 CALM      30.11R
IMPERIAL       CLEAR     82  30  15 NW3       30.08S
BLYTHE         CLEAR     81  25  12 N8        30.11S
NEEDLES        CLEAR     76  23  14 N13       30.16R
$$

NVZ020-UTZ003-100200-
SOUTHERN NEVADA-UTAH

CITY           SKY/WX    TMP DP  RH WIND       PRES   REMARKS
LAS VEGAS      CLEAR     71  25  17 CALM      30.22S
SALT LAKE CITY PTCLDY    35  28  75 NW6       30.50S HAZE    WCI  30
$$

NMZ009-TXZ055-100200-
NEW MEXICO-WEST TEXAS

CITY           SKY/WX    TMP DP  RH WIND       PRES   REMARKS
ALBUQUERQUE    CLEAR     57  19  22 CALM      30.33R
EL PASO        CLEAR     62  17  17 CALM      30.27S
$$


........................KEY........................
SKY/WX - SKY CONDITION/WEATHER
TMP    - TEMPERATURE IN FAHRENHEIT
DP     - DEW POINT IN FAHRENHEIT
RH     - RELATIVE HUMIDITY IN PERCENT
WIND   - DIRECTION AND SPEED IN MILES PER HOUR (MPH)
VRB    - VARIABLE WIND DIRECTION
PRES   - MEAN SEA LEVEL PRESSURE IN INCHES OF MERCURY
         F - FALLING PRESSURE   R - RISING PRESSURE
         S - STEADY PRESSURE
VSB    - VISIBILITY IN MILES
HX     - HEAT INDEX IN FAHRENHEIT
WCI    - WIND CHILL INDEX IN FAHRENHEIT
TC     - TEMPERATURE IN CELSIUS WHICH IS ALSO KNOWN AS
         TEMPERATURE IN CENTIGRADE
AFB    - AIR FORCE BASE
         LUKE AFB IS LUKE AIR FORCE BASE
         DAVIS-MONTHAN IS DAVIS-MONTHAN AIR FORCE BASE
NAS    - NAVAL AIR STATION
         EL CENTRO NAS IS EL CENTRO NAVAL AIR STATION
N/A    - NOT AVAILABLE





USA.gov is the U.S. government's official web portal to all federal, state and local government web resources and services.